Location: Kuppenheim
(48.8299°N, 8.2568°E)
Time: 05:57:50
(UTC+00:00)

ERBS - Pass Details

Date: 01 November 2021
Orbit: 393 x 407 km, 57.0° (Epoch: 30 November)

Event Time Altitude Azimuth Distance (km) Brightness Sun altitude
Exits shadow 04:23:37 30° 348° (NNW) 764 3.4 -18.5°
Drops below altitude 10° 04:26:22 10° 44° (NE) 1,483 5.6 -18.1°
Sets 04:28:35 0° 55° (NE) 2,339 6.9 -17.7°
